Starlink 5450

operational
NORAD ID: 54778 Int'l Des: 2022-175 Owner: SPXS Country: US Constellation: starlink
LEOCIRCULAR

About Starlink 5450

Description loading...

Live Position

Loading 3D Globe...

Upcoming Passes

Altitude History

Altitude vs Time

uPlot chart will show altitude changes over time

Two-Line Element Set

1 54778U 22175W 25312.43740289 .00002336 00000-0 16475-3 0 9998
2 54778 53.2147 213.5078 0001218 95.8175 264.2956 15.08847357161828
Epoch: Nov 8, 2025 • Age: 66 hours

Current Status

Altitude 559.0 km
Velocity 7.58 km/s
Sub-Earth Point -53.30°S, 16.23°W
Launch Date Dec 17, 2022
Age 2.8 years
Type internet

Technical Details

Classification Payload
Mass 305.00 kg
Dry Mass 290.00 kg
Total Mass 305.00 kg
Length 0.20 m
Diameter 2.80 m
Span 9.00 m
Shape Box + pan
Manufacturer SPXS
Bus Type Starlink
Phase Status In Orbit
Owner/State SPXS/US

Large Constellations

Loading constellations...